Location: Marcé
(47.5801°N, 0.3280°W)
Time: 08:22:06
(UTC+01:00)

Vanguard 1 - Pass Details

Date: 30 November 2021
Orbit: 652 x 3830 km, 34.2° (Epoch: 16 January)

Event Time Altitude Azimuth Distance (km) Brightness Sun altitude
Exits shadow 00:45:04 13° 95° (E) 5,999 13.9 -64.0°
Drops below altitude 10° 00:46:41 10° 92° (E) 6,185 14.0 -64.1°
Sets 00:51:33 0° 83° (E) 6,839 14.4 -64.1°
